Presure
181 176 123 184 170 93 139 113 95 92 180 182 125 148 149 202 196 126 180 168 180 123 140 171 176 166 142 149 162 154 123 171 168 165 169 167 163 173 175 165 167 192 175
164 171 158 159 147 193 171 108 90 103 90 155 178 101 157 164 170 182 195 191 177 178 178 159 127 158 173 172 122 143 172 170 138 173 168 168 168 135 162 183 189 172 181
179 174 204 147 157 156 183 192 158 179 197 166 205 199 186 98 163 98 99 96 105 97 98 104 180 142 167 107 92 135 175 181 174 178 175 169 194 172 174 183 175 174 203
203 192 185 170 164 209 173 178 158 179 168 187 194 195 183 197 181 124 165 168 194 127 188 187 161 177 178 179 163 175 173 174 177 183 176 168 180 174 163 179 200 167 208
223 225 208 188 183 179 172 173 164 156 214 199 202 173 201 170 162 177 191 170 171 186 184 178 165 184 181 181 170 164 183 184 168 181 183 182 175 206 182 176 173 182 177
200 214 223 183 182 192 202 171 174 134 155 161 186 190 145 141 182 177 194 200 186 182 180 174 172 181 182 169 171 173 180 174 180 176 186 178 179 190 179 188 193 186 173
217 213 210 208 246 209 185 185 185 186 185 183 190 199 187 225 196 209 182 184 186 173 181 181 164 168 171 161 171 178 167 188 163 131 179 171 185 172 183 183 188 177 175
226 225 220 221 199 145 176 196 182 152 199 174 199 186 189 186 129 195 217 195 184 193 162 182 183 184 178 176 177 182 169 175 179 180 177 204 187 166 162 166 191 170 170
193 243 185 243 189 185 189 143 184 199 194 193 161 193 175 182 166 184 193 195 191 178 199 148 180 178 178 181 173 174 184 142 184 195 160 170 190 165 193 183 174 161 199
218 142 144 209 197 161 218 187 229 231 187 197 130 192 157 187 132 188 180 187 204 183 194 177 199 193 186 201 201 133 189 199 186 122 186 162 190 176 203 187 149 181 190
213 219 214 219 213 223 208 199 197 223 221 225 201 195 204 196 196 195 190 205 194 156 204 150 203 195 199 139 196 170 188 91 175 145 196 190 207 188 180 201 176 196 182
250 236 217 216 215 221 211 208 204 206 184 210 203 221 198 190 190 201 162 153 153 215 200 206 184 163 193 195 188 196 187 144 147 207 179 182 201 188 184 136 198 165 184
262 253 249 237 229 224 218 217 217 221 210 202 198 192 190 194 154 155 150 194 201 201 201 97 171 182 136 189 174 173 187 179 201 201 179 184 175 190 195 166 220 200 162
332 275 264 252 242 235 228 223 223 218 214 206 211 215 200 190 197 194 188 124 198 206 204 192 182 185 186 181 187 173 201 203 185 204 217 172 202 182 161 173 156 209 165
305 318 297 267 256 244 242 236 229 224 225 220 214 217 203 202 173 179 202 200 193 205 200 183 207 190 185 194 189 183 174 194 188 204 212 146 169 219 166 204 221 204 199
286 293 305 321 283 265 257 252 243 162 235 228 221 220 212 224 233 197 179 188 162 208 200 197 179 158 198 200 181 126 178 196 196 187 180 171 214 159 195 170 200 208 201
262 271 282 288 300 316 269 267 255 251 247 89 232 230 226 230 239 206 183 195 199 194 191 184 197 182 201 188 193 184 215 194 203 207 199 160 190 190 195 221 198 188 204
326 242 252 269 273 285 297 306 268 262 262 249 240 235 224 233 248 247 226 200 188 192 193 191 140 193 202 221 199 198 162 216 173 185 192 165 189 205 194 194 186 228 195
316 315 315 258 233 249 267 276 292 301 302 262 251 247 241 244 242 245 215 201 197 187 194 191 196 185 202 171 211 194 192 183 170 191 214 202 190 188 165 190 197 196 208
305 305 312 311 314 332 285 233 251 276 286 268 284 261 237 235 230 220 239 127 204 207 201 197 180 196 196 211 204 213 196 194 211 197 216 188 205 208 186 196 177 183 204
317 302 298 307 305 319 333 335 338 145 250 273 262 256 258 237 229 237 149 222 200 200 180 178 172 202 196 170 207 179 200 217 205 202 228 175 200 178 183 182 188 215 216
310 303 301 299 309 326 333 334 343 342 300 235 260 254 238 239 168 227 227 227 238 162 194 197 191 202 204 210 191 207 194 216 222 184 164 192 179 194 210 182 212 225 225
304 293 297 308 338 353 329 328 317 303 297 278 230 260 227 234 237 193 252 211 220 213 212 189 185 171 179 205 166 190 207 179 193 176 208 185 179 205 223 204 224 215 223
303 307 318 325 330 305 301 291 280 292 322 322 215 190 236 234 238 236 217 197 225 195 206 198 164 187 187 186 203 181 179 173 181 192 224 192 191 197 219 214 222 218 223
316 316 317 304 289 293 279 283 283 331 336 265 206 235 228 233 238 222 216 225 229 195 203 172 186 183 195 186 182 174 173 177 175 198 212 194 190 220 199 209 217 227 269
291 282 276 265 260 263 269 275 287 271 227 214 202 228 157 234 232 197 220 220 210 220 223 207 191 186 215 178 172 214 204 189 194 193 218 227 222 214 207 211 226 272 232
Wind_Speed
49 51 57 54 54 41 51 49 32 33 56 55 44 48 45 50 52 44 54 51 53 47 51 56 53 55 51 53 57 51 56 58 58 57 57 59 60 62 63 63 65 63 65
56 54 53 56 53 57 56 43 36 42 38 56 57 41 53 55 53 52 54 55 55 55 57 55 51 56 60 60 56 56 60 60 57 57 58 60 63 53 63 63 62 66 66
62 72 44 50 54 57 62 64 66 64 57 63 57 59 61 47 58 47 47 50 51 50 53 53 60 57 63 57 52 55 64 64 61 61 62 61 62 62 61 63 59 66 62
66 71 69 68 69 62 63 57 60 70 60 67 60 59 61 64 65 51 56 56 59 55 58 60 59 64 65 67 59 64 62 63 62 63 62 57 64 62 60 59 56 65 53
72 75 78 79 81 74 72 71 63 65 67 67 62 67 64 60 58 63 62 59 60 60 60 61 61 63 67 70 65 59 70 69 56 63 66 63 56 61 60 57 63 62 63
73 74 77 77 79 83 80 75 80 51 62 64 64 72 51 53 65 66 65 66 65 64 63 63 63 64 68 67 66 66 67 61 65 63 68 66 63 65 58 59 56 59 65
79 78 77 79 83 84 90 84 86 83 79 72 68 72 68 68 74 69 64 67 67 67 68 66 63 63 66 58 67 70 56 72 46 58 64 57 67 55 61 62 60 62 65
84 83 82 82 81 54 85 90 88 59 90 68 79 75 71 71 46 64 67 70 67 73 62 71 70 72 71 71 72 75 60 67 69 65 59 72 65 58 65 68 63 66 70
75 87 74 86 71 72 78 52 69 94 86 84 62 82 72 74 65 75 71 71 72 63 76 55 71 69 71 73 69 67 73 56 64 73 54 56 62 66 68 67 65 73 63
91 67 68 87 83 72 83 73 80 87 85 89 50 84 54 76 51 79 72 72 75 74 77 71 73 75 74 77 78 55 76 79 61 58 58 67 61 72 70 66 65 67 63
93 95 91 91 90 88 87 86 89 82 88 89 90 91 87 89 88 85 80 80 81 64 81 59 74 74 76 61 76 70 71 51 50 64 66 67 75 60 66 67 66 62 65
104 100 96 95 93 93 90 90 90 90 68 87 87 83 89 91 88 85 69 60 66 83 80 78 71 66 73 77 76 77 73 65 64 83 56 55 69 70 67 61 68 73 69
110 109 108 102 98 97 95 92 91 89 89 92 92 90 90 91 72 62 71 87 79 85 81 54 69 71 63 75 71 67 73 65 77 82 72 53 59 69 77 78 87 68 79
88 110 112 111 106 103 100 95 94 94 94 92 93 88 92 95 92 98 88 66 86 87 80 78 77 78 77 74 77 69 82 83 72 86 80 64 78 73 79 82 77 82 83
84 86 104 112 113 109 107 103 101 98 95 94 92 90 91 92 78 87 94 95 94 99 87 77 81 80 80 84 79 74 69 86 76 88 92 72 74 93 82 84 99 90 78
84 86 86 89 108 112 113 112 109 67 101 97 94 90 92 91 84 90 79 93 50 95 92 87 77 72 83 84 76 56 79 87 88 70 65 73 98 79 85 84 84 89 84
80 83 86 88 90 91 110 111 111 111 107 36 97 98 96 90 90 89 89 98 102 94 75 72 86 71 93 75 86 76 88 87 85 96 90 78 78 88 79 100 85 91 94
58 82 85 87 90 89 91 94 106 110 109 104 101 99 97 94 87 83 92 100 86 88 81 92 63 92 95 78 90 93 77 98 68 71 85 81 90 91 83 81 87 117 94
58 60 61 79 87 89 89 90 90 92 93 98 97 94 93 88 81 82 98 92 100 92 96 89 96 79 96 64 91 70 68 70 70 90 106 88 84 90 87 89 98 101 108
53 53 50 50 52 47 68 88 90 87 87 92 88 91 89 84 81 79 86 59 97 95 94 90 70 97 92 99 95 87 89 89 105 97 111 76 97 107 89 96 90 98 107
54 56 54 48 51 45 46 48 48 49 84 87 82 84 85 82 82 85 60 89 91 93 73 65 57 103 93 67 99 66 101 107 100 83 112 82 88 88 92 93 97 117 119
40 47 43 45 42 40 44 39 32 37 63 77 77 79 77 76 49 85 76 81 79 52 92 91 77 99 105 101 76 106 91 112 103 71 79 88 93 97 107 93 117 132 129
35 34 31 32 32 35 34 35 35 37 46 61 71 71 65 68 77 62 63 68 86 96 96 64 50 54 57 105 66 89 94 70 82 80 108 93 94 109 130 110 130 124 134
23 24 26 30 33 39 36 39 40 37 32 31 66 50 64 64 61 61 65 55 84 65 85 69 61 76 84 90 80 65 72 78 83 91 118 94 97 106 132 129 140 131 136
23 26 31 37 36 40 29 30 23 28 30 44 63 55 58 58 61 70 72 78 80 62 72 57 65 75 53 67 64 73 77 81 87 102 109 95 94 125 112 129 139 140 135
41 43 46 48 45 37 35 32 33 30 55 61 61 58 48 62 66 58 73 75 78 84 83 83 59 61 97 68 73 97 86 83 96 94 118 128 127 121 121 133 142 123 125
Wind_Direction
256 262 260 265 265 264 263 268 262 262 261 260 264 261 262 257 258 269 260 263 263 276 275 270 269 271 277 278 279 286 288 281 285 289 290 290 292 294 296 294 297 308 301
256 244 263 263 254 263 253 260 258 259 261 261 258 262 262 266 263 261 259 259 263 265 266 275 279 275 271 273 286 281 279 283 286 287 291 292 292 296 294 302 305 297 303
246 253 225 255 260 257 258 260 260 255 263 259 262 258 256 272 263 271 273 277 275 278 281 281 268 276 276 286 286 281 280 281 287 287 289 294 294 295 298 302 298 296 306
238 236 244 255 261 262 262 262 264 251 264 253 258 257 255 258 258 271 267 267 262 276 261 262 274 270 272 274 282 281 284 286 288 289 292 295 296 298 294 300 306 296 306
241 234 230 240 250 258 256 257 263 257 254 252 252 261 253 265 261 263 255 264 269 264 264 267 272 266 269 272 280 287 280 283 290 292 293 295 300 293 299 297 293 297 299
242 241 236 242 246 242 244 260 261 260 262 265 256 254 265 268 257 265 256 256 257 261 263 266 269 268 268 275 280 283 284 289 289 293 293 293 297 297 300 298 296 296 295
244 242 240 240 239 235 247 254 258 259 264 262 259 255 263 253 255 254 262 261 260 269 263 262 275 274 274 282 279 280 287 283 285 295 293 291 296 292 299 295 296 295 294
246 245 243 241 241 256 253 245 255 263 254 259 257 259 260 260 262 257 256 259 260 260 270 264 263 265 270 274 277 279 285 283 283 288 287 293 291 285 287 289 295 291 292
252 245 254 244 252 254 249 252 250 247 254 255 258 258 263 263 258 260 261 261 263 266 260 274 268 270 272 272 279 279 281 282 290 287 279 284 294 287 295 291 287 292 300
246 263 263 242 244 260 241 253 240 239 249 251 245 256 263 258 264 260 264 263 260 264 265 269 262 266 270 271 272 283 281 281 285 290 294 288 296 290 295 292 291 291 297
247 245 245 242 243 242 242 243 243 238 240 242 247 252 253 257 259 262 263 260 262 269 261 275 263 266 268 279 275 279 282 295 282 286 292 295 294 293 287 296 286 297 290
243 242 246 245 244 242 242 241 242 241 246 243 245 244 249 257 260 261 263 270 270 259 263 261 269 274 271 275 278 277 285 283 284 289 285 285 294 287 288 295 293 288 289
240 243 243 242 242 242 241 240 240 240 241 243 245 250 253 251 258 270 268 263 259 260 263 282 272 273 279 275 278 281 284 286 285 289 289 284 279 296 300 286 303 294 293
236 237 239 242 243 242 243 242 240 240 241 242 244 244 245 252 251 256 263 270 262 259 261 266 272 273 273 274 278 282 285 282 290 291 290 274 290 292 288 289 293 304 292
237 237 235 237 240 243 243 243 244 242 242 242 243 244 244 245 265 266 254 258 265 263 266 267 267 271 274 276 277 283 282 286 287 289 289 290 279 298 286 303 302 297 296
237 235 235 236 236 238 241 242 244 249 243 244 244 244 245 249 250 246 268 266 265 261 266 269 270 274 274 276 279 280 285 286 288 290 281 280 296 291 293 288 297 301 299
234 235 236 236 236 236 238 239 241 243 244 275 245 248 249 250 253 243 264 258 258 265 267 271 272 277 275 276 281 279 279 288 288 291 295 289 292 296 297 299 302 293 303
230 233 234 235 236 236 236 236 238 240 241 242 244 245 247 249 248 246 240 251 266 265 267 270 277 276 277 273 282 283 284 282 277 295 298 291 298 302 293 301 293 302 296
227 230 233 235 237 236 236 236 236 236 236 239 239 240 242 244 242 245 238 245 256 259 266 272 272 277 275 282 275 288 283 286 277 293 293 300 290 292 293 296 303 299 305
228 231 232 233 237 238 236 236 235 234 233 234 232 234 237 239 240 246 242 267 251 252 258 267 277 271 275 272 280 276 290 296 288 289 294 292 300 297 293 300 297 297 305
221 226 234 236 238 237 229 231 230 248 232 231 230 231 233 236 239 241 262 240 254 257 264 273 273 268 273 275 277 280 289 283 291 295 288 287 300 292 290 294 295 300 308
213 214 223 231 238 234 225 229 224 211 226 228 226 229 233 235 250 243 245 244 247 263 260 261 274 271 271 272 287 282 287 287 287 290 294 293 292 294 306 298 307 307 310
202 211 223 229 225 209 200 201 192 203 219 225 225 224 234 236 240 247 245 246 246 248 251 271 278 281 280 274 282 281 283 281 285 291 292 296 298 304 304 303 306 308 309
199 210 212 195 182 166 167 175 189 207 204 201 225 238 228 234 242 244 242 252 244 254 256 261 277 272 277 279 283 281 281 287 293 296 292 298 298 305 301 308 307 308 307
189 188 177 164 171 166 169 176 183 184 179 198 223 220 226 230 232 236 241 242 246 266 261 266 281 273 282 279 284 287 286 294 292 292 299 299 300 300 307 308 307 306 305
119 123 121 118 115 122 128 132 144 154 195 211 226 220 245 226 228 257 241 248 253 255 256 264 272 279 276 278 282 287 289 290 290 295 295 294 303 306 305 305 304 301 308